Location: Marsån
(66.4167°N, 22.2833°E)
Time: 08:45:29
(UTC+00:00)

Cosmos 1892 Rocket - Pass Details

Date: 24 February 2024
Orbit: 602 x 631 km, 82.5° (Epoch: 20 April)

Event Time Altitude Azimuth Distance (km) Brightness Sun altitude
Rises 16:24:43 0° 197° (SSW) 2,893 7.4 -6.7°
Reaches altitude 10° 16:26:55 10° 197° (SSW) 1,995 6.5 -7.0°
Maximum altitude 16:31:21 88° 283° (WNW) 637 3.7 -7.4°
Drops below altitude 10° 16:35:52 10° 18° (NNE) 2,024 6.0 -7.8°
Sets 16:38:07 0° 19° (NNE) 2,939 6.8 -8.1°
